Location: Beccas
(43.4309°N, 0.1528°E)
Time: 23:40:30
(UTC+00:00)

Envisat - Visible Passes

Search period start: 28 January 2022 00:00
Search period end: 07 February 2022 00:00
Orbit: 764 x 766 km, 98.2° (Epoch: 28 January)

Date Brightness Start Highest point End Pass type
(mag) Time Alt. Az. Time Alt. Az. Time Alt. Az.
28 Jan 3.2 04:46:50 10° NNE 04:51:56 70° ESE 04:56:59 10° S visible
28 Jan 4.4 06:27:16 10° NNW 06:30:22 16° WNW 06:33:28 10° W visible
29 Jan 4.6 04:10:23 10° NNE 04:14:54 32° E 04:19:24 10° SSE visible
29 Jan 3.6 05:49:22 10° N 05:53:53 33° WNW 05:58:22 10° SW visible
30 Jan 5.7 03:34:54 10° NE 03:37:41 15° E 03:40:26 10° ESE visible
30 Jan 2.8 05:12:07 10° N 05:17:11 70° WNW 05:22:13 10° SSW visible
31 Jan 3.6 04:35:18 10° NNE 04:40:18 54° E 04:45:16 10° S visible
31 Jan 4.2 06:15:15 10° NNW 06:18:54 20° WNW 06:22:33 10° WSW visible
31 Jan 6.2 17:33:18 10° WSW 17:35:26 13° W 17:37:35 10° WNW visible
01 Feb 5.0 03:59:03 10° NE 04:03:13 25° E 04:07:22 10° SSE visible
01 Feb 3.3 05:37:37 10° N 05:42:21 41° WNW 05:47:05 10° SW visible
02 Feb 6.0 03:24:26 10° ENE 03:25:55 11° E 03:27:25 10° ESE visible
02 Feb 2.9 05:00:30 10° NNE 05:05:37 87° WNW 05:10:42 10° SSW visible
02 Feb 4.7 06:41:47 10° NW 06:43:50 12° WNW 06:45:53 10° W visible
03 Feb 4.1 04:23:49 10° NNE 04:28:40 43° E 04:33:28 10° S visible
03 Feb 4.0 06:03:20 10° N 06:07:26 25° WNW 06:11:30 10° WSW visible
04 Feb 5.3 03:47:49 10° NE 03:51:31 20° E 03:55:11 10° SE visible
04 Feb 3.1 05:25:54 10° N 05:30:49 51° WNW 05:35:43 10° SW visible
05 Feb 3.1 04:48:54 10° NNE 04:54:00 74° ESE 04:59:04 10° S visible
05 Feb 4.5 06:29:29 10° NNW 06:32:24 16° WNW 06:35:18 10° W visible
06 Feb 4.5 04:12:23 10° NNE 04:17:00 34° E 04:21:35 10° SSE visible
06 Feb 3.7 05:51:30 10° N 05:55:56 31° WNW 06:00:20 10° SW visible
